Hlavní strana
METAR-TAF:

METAR-TAF

Letiště :

Columbus County Municipal Airport

Whiteville, Severní Karolína, Spojené státy americké

zeměpisná šířka: 34-16-22N, zeměpisná délka: 078-42-54W, výška: 30 m

Aktuální stav počasí

Zpráva byla vytvořena před 11 minutami, v 08:55 UTC
Jihozápadní vítr 3 kt
Teplota 22°C
Vlhkost vzduchu 94%
Tlak 1017 hPa
Viditelnost: 16.1 km
Jasno

METAR: KCPC 190855Z AUTO 22003KT 10SM CLR 22/21 A3004 RMK AO2 T02230208

Čas: 05:06 (09:06 UTC)


TAF: chybějící

Stav a předpovědi počasí z více než 4 000 letišť (zprávy METAR a TAF).

Červené a žluté tečky na mapě představují dostupné meteorologické stanice.

Když kurzor umístíte na tečku, zobrazí se název stanice.

Pak kliknutím zobrazíte stav a předpověď počasí.

Chcete-li změnit mapu, kliknutím na zelené tlačítko se znaménkem +mapu přiblížíte, kliknutím na zelené tlačítko se znaménkem – mapu oddálíte a kliknutím na zelené šipky přejdete na sousední mapy.


METAR-TAF: